CW8659 Weather Reports


time (UTC)temp
F
wind
direction
speed
knots
gust
knots
rain 1hr
in
rain 24hr
in
rain mn
in
humidity
%
barometer
mb
20260506033843 62 200 0.0 0.0 0.00 0.00 0.00 63 1008.8
20260506033356 62 200 0.0 0.0 0.00 0.00 0.00 62 1008.8
20260506032900 63 200 0.0 0.0 0.00 0.00 0.00 61 1008.7
20260506032345 63 201 0.0 0.0 0.00 0.00 0.00 60 1008.8
20260506031818 64 201 0.0 0.0 0.00 0.00 0.00 59 1008.7
20260506031354 65 201 0.0 0.0 0.00 0.00 0.00 57 1008.7
20260506030833 65 201 0.0 0.0 0.00 0.00 0.00 56 1008.7
20260506030321 66 200 0.0 0.0 0.00 0.00 0.00 55 1008.7
20260506025332 67 201 0.0 0.0 0.00 0.00 0.00 53 1008.7
20260506024816 68 200 0.0 0.0 0.00 0.00 0.00 51 1008.7
20260506024326 69 201 0.0 0.0 0.00 0.00 0.00 49 1008.6
20260506023845 70 201 0.0 0.0 0.00 0.00 0.00 48 1008.7
20260506023331 70 223 0.0 0.0 0.00 0.00 0.00 47 1008.8
20260506022833 70 191 0.0 0.0 0.00 0.00 0.00 47 1008.7
20260506022338 70 229 0.0 0.0 0.00 0.00 0.00 46 1008.7
20260506021833 70 236 0.0 0.0 0.00 0.00 0.00 47 1008.7
20260506021320 71 207 0.0 0.0 0.00 0.00 0.00 46 1008.7
20260506020829 71 241 0.9 0.0 0.00 0.00 0.00 46 1008.7
20260506020356 71 198 1.7 0.0 0.00 0.00 0.00 45 1008.8
20260506015823 71 246 2.6 0.0 0.00 0.00 0.00 45 1008.7
20260506015331 71 221 1.7 0.0 0.00 0.00 0.00 45 1008.6
20260506014837 71 228 0.9 0.0 0.00 0.00 0.00 45 1008.6
20260506014343 72 200 0.0 0.0 0.00 0.00 0.00 44 1008.4
20260506013821 72 214 0.0 0.0 0.00 0.00 0.00 45 1008.4
20260506013325 72 198 0.0 0.0 0.00 0.00 0.00 45 1008.3
20260506012824 72 207 0.0 0.0 0.00 0.00 0.00 44 1008.3
20260506012327 72 205 0.0 0.0 0.00 0.00 0.00 44 1008.2
20260506011828 73 217 0.9 0.0 0.00 0.00 0.00 44 1008.2
20260506011335 73 244 2.6 0.0 0.00 0.00 0.00 43 1008.2
20260506010857 72 198 2.6 0.0 0.00 0.00 0.00 44 1008.0
20260506010343 72 208 1.7 0.0 0.00 0.00 0.00 44 1008.0
20260506005843 72 225 0.9 0.0 0.00 0.00 0.00 45 1008.0
20260506005320 71 195 0.9 0.0 0.00 0.00 0.00 46 1007.9
20260506004821 71 214 1.7 0.0 0.00 0.00 0.00 45 1007.9
20260506004333 72 198 1.7 0.0 0.00 0.00 0.00 45 1007.9
20260506003821 72 186 1.7 0.0 0.00 0.00 0.00 44 1007.9
20260506003324 73 186 2.6 0.0 0.00 0.00 0.00 44 1007.9
20260506002832 73 195 2.6 0.0 0.00 0.00 0.00 42 1007.8
20260506002334 73 205 3.5 0.0 0.00 0.00 0.00 41 1007.8
20260506001831 74 232 3.5 0.0 0.00 0.00 0.00 41 1007.7
20260506001320 74 165 3.5 0.0 0.00 0.00 0.00 40 1007.6
20260506000846 75 179 2.6 0.0 0.00 0.00 0.00 40 1007.5
20260506000403 75 200 1.7 0.0 0.00 0.00 0.00 40 1007.6
20260505235820 75 206 1.7 0.0 0.00 0.00 0.00 40 1007.5
20260505235328 75 222 0.9 0.0 0.00 0.00 0.00 39 1007.6
20260505234833 75 192 0.9 0.0 0.00 0.00 0.00 40 1007.5
20260505234341 75 213 2.6 0.0 0.00 0.00 0.00 41 1007.5
20260505233817 75 201 2.6 0.0 0.00 0.00 0.00 40 1007.4
20260505233320 75 186 1.7 0.0 0.00 0.00 0.00 40 1007.5
20260505232857 75 196 0.9 0.0 0.00 0.00 0.00 40 1007.4
20260505232328 75 237 0.0 0.0 0.00 0.00 0.00 40 1007.3
20260505231816 75 223 0.0 0.0 0.00 0.00 0.00 40 1007.3
20260505231332 75 186 0.0 0.0 0.00 0.00 0.00 39 1007.3
20260505230820 76 205 0.9 0.0 0.00 0.00 0.00 39 1007.3
20260505230322 76 197 0.9 0.0 0.00 0.00 0.00 39 1007.2
20260505225822 75 205 1.7 0.0 0.00 0.00 0.00 40 1007.3
20260505225354 75 209 2.6 0.0 0.00 0.00 0.00 40 1007.2
20260505224841 75 223 1.7 0.0 0.00 0.00 0.00 39 1007.0
20260505224344 76 232 0.9 0.0 0.00 0.00 0.00 38 1007.0
20260505223823 76 184 0.9 0.0 0.00 0.00 0.00 39 1007.0
20260505223356 76 229 1.7 0.0 0.00 0.00 0.00 39 1007.1
20260505222844 76 226 1.7 0.0 0.00 0.00 0.00 38 1007.0
20260505222325 76 233 1.7 0.0 0.00 0.00 0.00 38 1007.0
20260505221820 76 225 1.7 0.0 0.00 0.00 0.00 38 1007.0
20260505221356 76 219 3.5 0.0 0.00 0.00 0.00 38 1007.0
20260505220845 77 194 4.3 0.0 0.00 0.00 0.00 37 1006.9
20260505220321 76 194 2.6 0.0 0.00 0.00 0.00 38 1007.0
20260505215826 77 187 1.7 0.0 0.00 0.00 0.00 38 1006.9
20260505215328 77 217 2.6 0.0 0.00 0.00 0.00 37 1006.8
20260505214831 77 200 3.5 0.0 0.00 0.00 0.00 38 1006.9
20260505214321 77 199 3.5 0.0 0.00 0.00 0.00 37 1006.8
20260505213827 77 209 1.7 0.0 0.00 0.00 0.00 38 1006.8
20260505213329 77 197 0.9 0.0 0.00 0.00 0.00 38 1006.8
20260505212826 77 183 3.5 0.0 0.00 0.00 0.00 38 1006.8
20260505212331 77 221 7.0 0.0 0.00 0.00 0.00 37 1006.7
20260505211817 78 150 7.0 0.0 0.00 0.00 0.00 38 1006.8
20260505211320 78 153 4.3 0.0 0.00 0.00 0.00 38 1006.6
20260505210817 78 219 4.3 0.0 0.00 0.00 0.00 37 1006.5
20260505210326 79 218 3.5 0.0 0.00 0.00 0.00 37 1006.7
20260505205826 79 235 2.6 0.0 0.00 0.00 0.00 40 1006.6
20260505205331 78 233 2.6 0.0 0.00 0.00 0.00 36 1006.5
20260505204834 79 203 2.6 0.0 0.00 0.00 0.00 37 1006.5
20260505204341 79 200 5.2 0.0 0.00 0.00 0.00 39 1006.5
20260505203825 79 199 6.1 0.0 0.00 0.00 0.00 38 1006.5
20260505203330 79 215 5.2 0.0 0.00 0.00 0.00 36 1006.5
20260505202818 80 212 4.3 0.0 0.00 0.00 0.00 33 1006.6
20260505202357 80 194 4.3 0.0 0.00 0.00 0.00 32 1006.5
20260505201833 81 207 4.3 0.0 0.00 0.00 0.00 32 1006.6
20260505201325 79 190 4.3 0.0 0.00 0.00 0.00 34 1006.4
20260505200851 79 198 4.3 0.0 0.00 0.00 0.00 31 1006.5
20260505200337 80 205 3.5 0.0 0.00 0.00 0.00 31 1006.6
20260505195823 81 261 4.3 0.0 0.00 0.00 0.00 33 1006.5
20260505195324 80 195 7.0 0.0 0.00 0.00 0.00 32 1006.8
20260505194828 80 170 6.1 0.0 0.00 0.00 0.00 32 1006.7
20260505194334 81 222 3.5 0.0 0.00 0.00 0.00 33 1006.8
20260505193840 80 230 3.5 0.0 0.00 0.00 0.00 37 1006.9
20260505193316 80 209 3.5 0.0 0.00 0.00 0.00 35 1006.9
20260505192823 81 210 2.6 0.0 0.00 0.00 0.00 33 1006.9
20260505192332 80 267 5.2 0.0 0.00 0.00 0.00 31 1007.0
20260505191824 80 223 7.0 0.0 0.00 0.00 0.00 32 1007.3
20260505191351 80 158 6.1 0.0 0.00 0.00 0.00 31 1007.3
20260505190815 80 223 7.0 0.0 0.00 0.00 0.00 32 1007.3
20260505190316 79 184 7.0 0.0 0.00 0.00 0.00 32 1007.4
20260505185818 80 200 6.1 0.0 0.00 0.00 0.00 31 1007.6
20260505185324 80 200 6.1 0.0 0.00 0.00 0.00 34 1007.4
20260505184826 79 238 7.0 0.0 0.00 0.00 0.00 32 1007.5
20260505184338 80 217 6.1 0.0 0.00 0.00 0.00 32 1007.7
20260505183815 80 227 5.2 0.0 0.00 0.00 0.00 33 1007.7
20260505183327 80 264 5.2 0.0 0.00 0.00 0.00 33 1007.8
20260505182839 80 202 5.2 0.0 0.00 0.00 0.00 33 1007.7
20260505182324 80 228 4.3 0.0 0.00 0.00 0.00 37 1007.7
20260505181830 80 234 4.3 0.0 0.00 0.00 0.00 36 1007.6
20260505181315 79 207 4.3 0.0 0.00 0.00 0.00 39 1007.8
20260505180815 78 200 2.6 0.0 0.00 0.00 0.00 40 1007.9
20260505180316 79 223 4.3 0.0 0.00 0.00 0.00 39 1008.0
20260505175821 79 229 6.1 0.0 0.00 0.00 0.00 37 1008.0
20260505175346 79 215 7.0 0.0 0.00 0.00 0.00 38 1008.1
20260505174857 78 261 4.3 0.0 0.00 0.00 0.00 38 1008.1
20260505174341 79 170 4.3 0.0 0.00 0.00 0.00 41 1008.1
20260505173818 78 184 6.1 0.0 0.00 0.00 0.00 41 1008.2
20260505173320 78 192 6.1 0.0 0.00 0.00 0.00 41 1008.3
20260505172828 78 196 4.3 0.0 0.00 0.00 0.00 38 1008.3
20260505172331 78 217 3.5 0.0 0.00 0.00 0.00 45 1008.2
20260505171831 78 190 3.5 0.0 0.00 0.00 0.00 45 1008.2
20260505171338 77 172 2.6 0.0 0.00 0.00 0.00 44 1008.4
20260505170820 77 213 3.5 0.0 0.00 0.00 0.00 43 1008.4
20260505170322 77 230 4.3 0.0 0.00 0.00 0.00 44 1008.4
20260505165827 78 210 3.5 0.0 0.00 0.00 0.00 44 1007.4
20260505165354 78 186 1.7 0.0 0.00 0.00 0.00 42 1007.4
20260505164838 78 224 1.7 0.0 0.00 0.00 0.00 44 1007.5
20260505164325 78 230 2.6 0.0 0.00 0.00 0.00 46 1007.6
20260505163834 78 279 3.5 0.0 0.00 0.00 0.00 47 1007.7
20260505163340 77 191 3.5 0.0 0.00 0.00 0.00 47 1007.7
20260505162843 77 213 3.5 0.0 0.00 0.00 0.00 45 1007.8
20260505162315 76 187 3.5 0.0 0.00 0.00 0.00 47 1007.9
20260505161821 76 182 3.5 0.0 0.00 0.00 0.00 48 1008.0
20260505161346 75 192 2.6 0.0 0.00 0.00 0.00 47 1008.1
20260505160830 75 155 1.7 0.0 0.00 0.00 0.00 48 1008.1
20260505160315 75 203 4.3 0.0 0.00 0.00 0.00 51 1008.2
20260505153340 73 225 1.7 0.0 0.00 0.00 0.00 52 1008.5
20260505152826 72 196 2.6 0.0 0.00 0.00 0.00 53 1008.6
20260505152332 72 199 3.5 0.0 0.00 0.00 0.00 56 1008.6
20260505151817 72 173 4.3 0.0 0.00 0.00 0.00 54 1008.6
20260505151320 71 261 3.5 0.0 0.00 0.00 0.00 58 1008.6
20260505150844 71 208 2.6 0.0 0.00 0.00 0.00 57 1008.8
20260505150330 70 218 1.7 0.0 0.00 0.00 0.00 56 1008.7
20260505140319 66 271 0.0 0.0 0.00 0.00 0.00 66 1009.4
20260505124818 61 184 0.0 0.0 0.00 0.00 0.00 70 1009.3
20260505124323 61 209 0.0 0.0 0.00 0.00 0.00 70 1009.2
20260505123823 61 196 0.9 0.0 0.00 0.00 0.00 70 1009.2
20260505123326 61 185 1.7 0.0 0.00 0.00 0.00 71 1009.3
20260505122832 60 200 1.7 0.0 0.00 0.00 0.00 70 1009.3
20260505122336 60 264 1.7 0.0 0.00 0.00 0.00 71 1009.3
20260505121820 60 206 0.9 0.0 0.00 0.00 0.00 71 1009.3
20260505121329 60 209 0.0 0.0 0.00 0.00 0.00 71 1009.3
20260505120838 60 188 0.9 0.0 0.00 0.00 0.00 73 1009.4
20260505120341 59 235 0.9 0.0 0.00 0.00 0.00 74 1009.4
20260505115823 58 191 0.0 0.0 0.00 0.00 0.00 77 1009.3
20260505115325 57 190 0.0 0.0 0.00 0.00 0.00 80 1009.3
20260505114831 56 191 0.0 0.0 0.00 0.00 0.00 83 1009.3
20260505114334 54 190 0.0 0.0 0.00 0.00 0.00 86 1009.2
20260505113836 53 201 0.0 0.0 0.00 0.00 0.00 89 1009.0
20260505113320 51 200 0.0 0.0 0.00 0.00 0.00 92 1008.9
20260505112825 50 309 0.0 0.0 0.00 0.00 0.00 91 1009.0
20260505112328 50 309 0.0 0.0 0.00 0.00 0.00 91 1008.9
20260505111833 49 309 0.0 0.0 0.00 0.00 0.00 91 1008.8
20260505111330 49 308 0.0 0.0 0.00 0.00 0.00 90 1008.8
20260505110832 49 308 0.0 0.0 0.00 0.00 0.00 91 1008.9
20260505110334 48 309 0.0 0.0 0.00 0.00 0.00 90 1008.9
20260505101850 49 315 0.0 0.0 0.00 0.00 0.00 89 1008.8
20260505101330 49 315 0.0 0.0 0.00 0.00 0.00 89 1008.8
20260505100837 49 315 0.0 0.0 0.00 0.00 0.00 89 1008.5
20260505100322 49 315 0.0 0.0 0.00 0.00 0.00 88 1008.5
20260505095832 50 315 0.0 0.0 0.00 0.00 0.00 89 1008.3
20260505095342 50 315 0.0 0.0 0.00 0.00 0.00 88 1008.4
20260505094815 50 315 0.0 0.0 0.00 0.00 0.00 87 1008.4
20260505094344 51 315 0.0 0.0 0.00 0.00 0.00 87 1008.5
20260505093903 51 315 0.0 0.0 0.00 0.00 0.00 87 1008.5
20260505093406 51 315 0.0 0.0 0.00 0.00 0.00 86 1008.5
20260505092841 51 315 0.0 0.0 0.00 0.00 0.00 86 1008.6
20260505092344 52 315 0.0 0.0 0.00 0.00 0.00 85 1008.6
20260505091831 52 315 0.0 0.0 0.00 0.00 0.00 84 1008.7
20260505091324 53 315 0.0 0.0 0.00 0.00 0.00 82 1008.5
20260505090827 54 315 0.0 0.0 0.00 0.00 0.00 76 1008.7
20260505090315 54 197 0.0 0.0 0.00 0.00 0.00 76 1008.8
20260505085827 53 196 0.0 0.0 0.00 0.00 0.00 78 1009.2
20260505085330 52 196 0.0 0.0 0.00 0.00 0.00 79 1009.3
20260505084836 51 194 0.0 0.0 0.00 0.00 0.00 80 1009.3
20260505084333 48 184 0.0 0.0 0.00 0.00 0.00 84 1009.2
20260505083839 47 183 0.0 0.0 0.00 0.00 0.00 84 1009.1
20260505083321 47 183 0.0 0.0 0.00 0.00 0.00 85 1008.9
20260505082827 47 183 0.0 0.0 0.00 0.00 0.00 85 1008.9
20260505082352 47 183 0.0 0.0 0.00 0.00 0.00 85 1008.7
20260505081823 47 183 0.0 0.0 0.00 0.00 0.00 85 1008.7
20260505081329 47 183 0.0 0.0 0.00 0.00 0.00 85 1008.6
20260505080830 47 183 0.0 0.0 0.00 0.00 0.00 85 1008.6
20260505080336 47 183 0.0 0.0 0.00 0.00 0.00 85 1008.5
20260505075842 47 183 0.0 0.0 0.00 0.00 0.00 84 1008.5
20260505075334 47 183 0.0 0.0 0.00 0.00 0.00 85 1008.4
20260505074820 47 183 0.0 0.0 0.00 0.00 0.00 84 1008.4
20260505074327 47 183 0.0 0.0 0.00 0.00 0.00 84 1008.4
20260505073852 47 183 0.0 0.0 0.00 0.00 0.00 84 1008.5
20260505073325 47 183 0.0 0.0 0.00 0.00 0.00 85 1008.5
20260505072827 47 183 0.0 0.0 0.00 0.00 0.00 84 1008.6
20260505072329 47 183 0.0 0.0 0.00 0.00 0.00 85 1008.6
20260505071829 47 183 0.0 0.0 0.00 0.00 0.00 84 1008.6
20260505071335 47 183 0.0 0.0 0.00 0.00 0.00 84 1008.5
20260505070820 47 183 0.0 0.0 0.00 0.00 0.00 84 1008.5
20260505070319 47 183 0.0 0.0 0.00 0.00 0.00 84 1008.5
20260505065822 47 183 0.0 0.0 0.00 0.00 0.00 83 1008.6
20260505065351 47 183 0.0 0.0 0.00 0.00 0.00 83 1008.6
20260505064832 47 183 0.0 0.0 0.00 0.00 0.00 83 1008.6
20260505064342 47 183 0.0 0.0 0.00 0.00 0.00 83 1008.5
20260505063844 47 183 0.0 0.0 0.00 0.00 0.00 83 1008.5
20260505063329 47 183 0.0 0.0 0.00 0.00 0.00 83 1008.5
20260505062833 47 183 0.0 0.0 0.00 0.00 0.00 83 1008.7
20260505062326 47 183 0.0 0.0 0.00 0.00 0.00 83 1008.8
20260505061828 47 183 0.0 0.0 0.00 0.00 0.00 83 1008.7
20260505061334 46 183 0.0 0.0 0.00 0.00 0.00 83 1008.8
20260505060822 46 183 0.0 0.0 0.00 0.00 0.00 83 1008.8
20260505060327 46 183 0.0 0.0 0.00 0.00 0.00 83 1008.9
20260505055826 46 183 0.0 0.0 0.00 0.00 0.00 83 1008.8
20260505055331 46 183 0.0 0.0 0.00 0.00 0.00 83 1008.8
20260505054836 46 183 0.0 0.0 0.00 0.00 0.00 84 1008.8
20260505054321 46 183 0.0 0.0 0.00 0.00 0.00 83 1008.9
20260505053825 46 183 0.0 0.0 0.00 0.00 0.00 83 1008.9
20260505053331 46 183 0.0 0.0 0.00 0.00 0.00 83 1008.9
20260505052832 46 183 0.0 0.0 0.00 0.00 0.00 83 1008.9
20260505052332 46 183 0.0 0.0 0.00 0.00 0.00 83 1008.9
20260505051817 46 183 0.0 0.0 0.00 0.00 0.00 83 1009.0
20260505051323 46 183 0.0 0.0 0.00 0.00 0.00 83 1008.9
20260505050826 46 183 0.0 0.0 0.00 0.00 0.00 83 1008.7
20260505050348 46 183 0.0 0.0 0.00 0.00 0.00 82 1008.8
20260505041315 48 183 0.0 0.0 0.00 0.00 0.00 79 1008.6
20260505040820 48 183 0.0 0.0 0.00 0.00 0.00 79 1008.5
20260505040331 48 183 0.0 0.0 0.00 0.00 0.00 79 1008.6
20260505035825 48 183 0.0 0.0 0.00 0.00 0.00 78 1008.5
20260505035327 49 183 0.0 0.0 0.00 0.00 0.00 78 1008.6
20260505034901 49 183 0.0 0.0 0.00 0.00 0.00 78 1008.6
20260505034331 49 183 0.0 0.0 0.00 0.00 0.00 77 1008.4